Hourly Data Report for September 25, 2020

BRIER ISLAND
NOVA SCOTIA
Current Station Operator: ECCC - MSC

44°17'09.000" N
66°20'48.000" W
15.80 m
8200604
71988
WVU

Download Data

Hourly Data (September 2020)
Hourly Data Report for September 25, 2020
TIME Temp Definition
°C
Dew Point Definition
°C
Rel Hum Definition
%
Wind Dir Definition
10's deg

Wind Spd Definition
km/h
Visibility Definition
km
Stn Press Definition
kPa
Hmdx Definition


Wind Chill Definition


Weather Definition


00:00 13.0 12.7 98 23 14   101.28     LegendNANA
01:00 12.7 12.2 97 26 19   101.34     LegendNANA
02:00 13.1 12.4 96 30 17   101.37     LegendNANA
03:00 12.6 11.9 96 31 3   101.43     LegendNANA
04:00 12.0 11.2 95 36 10   101.47     LegendNANA
05:00 11.8 11.2 96 1 8   101.51     LegendNANA
06:00 11.7 10.8 94 1 10   101.58     LegendNANA
07:00 11.6 10.4 92 1 13   101.70     LegendNANA
08:00 12.0 11.1 94 36 8   101.78     LegendNANA
09:00 12.1 10.8 92 36 9   101.85     LegendNANA
10:00 12.9 10.9 87 36 12   101.88     LegendNANA
11:00 12.7 10.1 85 36 17   101.85     LegendNANA
12:00 12.9 9.0 77 1 14   101.87     LegendNANA
13:00 13.1 9.3 78 36 13   101.87     LegendNANA
14:00 13.1 8.8 76 1 11   101.83     LegendNANA
15:00 13.7 8.4 70 35 7   101.80     LegendNANA
16:00 13.1 7.3 68 33 5   101.79     LegendNANA
17:00 13.7 6.5 61 29 3   101.82     LegendNANA
18:00 12.9 5.1 59 34 1   101.85     LegendNANA
19:00 12.1 3.1 54 22 5   101.85     LegendNANA
20:00 11.9 4.6 61 19 4   101.87     LegendNANA
21:00 11.6 5.5 66 15 7   101.94     LegendNANA
22:00 11.9 7.0 72 22 1   101.98     LegendNANA
23:00 12.4 5.0 60 15 8   101.94     LegendNANA

Notes on Data Quality.

Legend

  • E = Estimated
  • M = Missing
  • NA = Not Available*
  • [empty] = Indicates an unobserved value
Date modified: